User: anonymous   Login
Location: Oakhurst
(33.6448°N, 111.9543°W)
Time: 14:35:13
(UTC+00:00)
Language:

FO-99 - Orbit

View from above orbital plane
View from above orbital plane
View from above satellite
View from above satellite

Ground track
Ground track

The orbit data is extracted from the following two-line orbital elements,

1 43937U 19003F   21214.55531600  .00001720  00000-0  69267-4 0  9998
2 43937  97.1733 255.8871 0022285 204.7160 155.3013 15.25956869141294
Epoch (UTC): 02 August 2021 13:19:39
Eccentricity: 0.0022285
inclination: 97.1733°
perigee height: 472 km
apogee height: 503 km
right ascension of ascending node: 255.8871°
argument of perigee: 204.7160°
revolutions per day: 15.25956869
mean anomaly at epoch: 155.3013°
orbit number at epoch: 14129

The dashed part of the orbit path shows where the satellite is in the earth's shadow,  

DLR